Regional Weather Roundup
Issued by NWS Jackson, KY

Home | Current Version | Previous Version | Graphics & Text | Print | Product List | Glossary On
Versions: 1 2 3 4 5 6 7 8 9 10 11 12 13 14 15 16 17 18 19 20 21 22 23 24 25 26 27 28 29 30 31 32 33 34 35 36 37 38 39 40 41 42 43 44 45 46 47 48 49 50
000
ASUS43 KJKL 281110
RWRJKL

EAST KENTUCKY HOURLY WEATHER ROUNDUP
NATIONAL WEATHER SERVICE JACKSON KY
700 AM EDT THU MAY 28 2015

NOTE: "FAIR" INDICATES FEW OR NO CLOUDS BELOW 12,000 FEET WITH
NO SIGNIFICANT WEATHER AND/OR OBSTRUCTIONS TO VISIBILITY.

* THESE REPORTS ARE NOT UNDER NWS QUALITY CONTROL AND MAY NOT
  REPORT WEATHER SUCH AS PRECIPITATION AND FOG.

KYZ079-080-083-085-087-088-110-112-115-119-120-281200
...EASTERN KENTUCKY...

CITY           SKY/WX    TMP DP  RH WIND       PRES   REMARKS
JACKSON        PTCLDY    63  60  90 CALM      30.25R
LONDON         CLOUDY    63  58  83 CALM      30.23R
SOMERSET*      CLOUDY    59  59 100 CALM      30.24R
MONTICELLO*    CLOUDY    63  63 100 CALM      30.26R
MIDDLESBORO*   CLOUDY    64  64 100 CALM      30.24R
HARLAN APT*    CLOUDY    63  63 100 CALM      30.25R VSB 1/2
HAZARD APT*    SUNNY     63  63 100 CALM      30.25R
BLACK MTN*       N/A     61  59  94 N1          N/A
PIKEVILLE APT* CLOUDY    63  63 100 CALM      30.26R
BIG SANDY*     CLOUDY    63  62  98 CALM      30.25R FOG
MOREHEAD APT*  FOG       59  59 100 CALM      30.25R VSB<1/4
$$

KYZ035-036-041-042-044-050-067-078-099-281200
...CENTRAL KENTUCKY...

CITY           SKY/WX    TMP DP  RH WIND       PRES   REMARKS
MT STERLING*   MOCLDY    59  59 100 CALM      30.25R
FLEMING/MASON* MOCLDY    59  59 100 CALM      30.24R
DANVILLE*      CLOUDY    59  59 100 CALM      30.24R
RICHMOND*      CLOUDY    61  59  94 CALM      30.23R
LEXINGTON      CLOUDY    61  60  97 CALM      30.22R
FRANKFORT      CLOUDY    62  60  93 CALM      30.21R
$$

KYZ091>093-OHZ055-061-077-WVZ005-015-034-035-042-281200
...SOUTHERN OHIO/WEST VIRGINIA...

CITY           SKY/WX    TMP DP  RH WIND       PRES   REMARKS
COVINGTON      FOG       64  63  96 CALM      30.20R VSB 1/4
COLUMBUS       CLOUDY    63  60  90 SE3       30.20R
DAYTON         PTCLDY    64  62  93 CALM      30.21R FOG
WILMINGTON     MOCLDY    61  59  93 S3        30.21R FOG
HUNTINGTON     CLOUDY    61  60  97 CALM      30.22R
CHARLESTON     MOCLDY    64  63  96 CALM      30.23R
PINEVILLE*     CLOUDY    61  61 100 MISG      30.31R
BECKLEY        CLOUDY    63  59  87 CALM      30.29R
BLUEFIELD      PTCLDY    65  56  72 W5        30.30R
$$

VAZ002-007-008-TNZ017-027-036-066-071-281200
...SOUTHWEST VIRGINIA/EAST TENNESSEE...

CITY           SKY/WX    TMP DP  RH WIND       PRES   REMARKS
WISE*          CLOUDY    64  57  77 NW3       30.30R
JONESVILLE*    MOSUNNY   61  61 100 CALM      30.27R
ABINGDON*      PTCLDY    63  62  94 CALM      30.28R
BRISTOL        PTCLDY    63  61  93 CALM      30.26R
KNOXVILLE      MOCLDY    69  63  81 CALM      30.21R
OAK RIDGE      CLOUDY    69  66  90 CALM      30.23R
CROSSVILLE     CLOUDY    65  62  90 CALM      30.26R
NASHVILLE      CLOUDY    67  66  97 SE3       30.20R
$$

...KEY TO REMARKS...
VSB - VISIBILITY IN MILES
WCI - WIND CHILL INDEX
HX  - HEAT INDEX

$$


USA.gov is the U.S. government's official web portal to all federal, state and local government web resources and services.